星链-34487 (STARLINK-34487)

导读

STARLINK-34487是由美国发射的Starlink星链卫星,发射时间为2025年6月17日。作为SpaceX星链互联网卫星星座的一员,它旨在为全球提供高速低延迟互联网服务,尤其覆盖偏远区域与网络基础设施薄弱地区,该卫星的入轨进一步扩充了星链星座的服务覆盖范围与网络容量。

Basic Information
目录编号:
64417
目录名称:
STARLINK-34487
国际标识:
2025-129F
轨道中心:
EARTH
卫星名称:
星链-34487
卫星全名:
星链-34487 (STARLINK-34487)
卫星状态:
在轨 (已飞行444 天)
发射日期:
2025-06-17 UTC
国别 :
美国 (US)
星等 :
--
Orbit Information
数据来源 国际轨道数据
星历时间: 2026-09-04T14:00:02+0800
6小时前
查看轨道信息
半长轴: 6878.815km
偏心率: 0.0005422
轨道倾角: 70.001°
近地点辐角 285.605°
升交点赤经 343.807°
平近点角 124.408°
近地点: 496.948km
远地点: 504.408km
周期: 94.630分钟
每日圈数: 15.217116
Detailed Information
固有亮度:
5
最大亮度:
2.5
卫星平台:
Starlink V1.0
覆盖范围:
全球
运营商:
太空探索技术公司
运营商所在国:
美国
制造商(研发单位):
太空探索技术公司
制造商所在国:
美国
使用方式:
暂无
Satellite Introduction
Starlink 计划是 SpaceX 推出的全球卫星互联网项目,通过发射低轨道卫星,为全球尤其是偏远地区提供高速、低延迟的互联网服务。自 2019 年起,Starlink 已部署数千颗卫星,旨在缩小全球数字鸿沟,推动互联网普及。该项目还为军事、航空等行业提供通信支持,带来广泛经济效益。
2D Orbit Map
3D Orbit Map
Orbit Altitude Analysis Chart
Orbit Inclination Analysis Chart
Orbit Comprehensive Analysis Chart
View Comprehensive Chart
Conjunction Data List
Event ID Objects TCA Miss Dist (km) Collision Risk Probability Collision Risk Index (CRI) Action
CDM_260906-091106-441706-789621
2026-09-06T
09:11:48+0000
1.392 km
极远距离
8.638455E-6 低风险 0.54
CDM_260904-180803-412806-441721
2026-09-04T
18:08:16+0000
1.970 km
极远距离
2.69997E-6 低风险 0.44
CDM_260905-205905-907706-441721
2026-09-05T
20:59:17+0000
2.184 km
极远距离
1.202202E-6 低风险 0.37